[[{"header":{"parameterUnit":"m.s-1","parameterCategory":1,"la1":30.2991,"la2":30.254,"lo1":-89.0895,"lo2":-89.0444,"dy":0.0017,"dx":0.0017,"nx":28,"ny":28,"refTime":"2024-07-27T21:00:00:Z","depth":0,"parameterNumber":2,"parameterNumberName":"U-component_of_WINDS"},"data":[0,0,0,0,0,0,0,0,0,0,0,0,0,0,0,0,0,0,0,0,0,0,0,0,0,0,0,0,0,0,0,0,0,0,0,0,0,0,0,0,0,0,0,0,0,0,0,0,0,0,0,0,0,0,0,0,0,0,4.0161,4.0162,0,4.0282,4.0283,4.0285,4.0223,4.022,4.0217,4.0214,4.034,4.0347,4.0353,0,0,0,0,0,0,0,0,0,0,0,0,0,3.9877,3.9882,4.0161,4.0162,4.0164,4.0282,4.0283,4.0285,4.0224,4.022,4.0216,4.0212,4.0338,4.0346,4.0353,0,0,0,0,0,0,0,0,0,0,0,0,0,3.9999,3.9884,4.016,4.0147,4.0147,4.0281,4.0284,4.0286,4.0224,4.022,4.0215,4.021,4.0336,4.0345,4.0355,4.051,0,0,4.0384,4.0388,0,0,0,0,0,0,0,0,3.9993,4.001,4.0148,4.0148,4.0148,4.0232,4.023,4.0361,4.0226,4.0195,4.0213,4.0208,4.0309,4.032,4.0353,4.0516,4.0521,4.0385,4.039,4.0394,4.0397,0,0,0,0,0,0,0,3.9984,4.0004,4.0209,4.015,4.015,4.0135,4.0148,4.0254,4.0277,4.0197,4.0193,4.0208,4.0308,4.0344,4.0356,4.0523,4.0384,4.0393,4.0399,4.0402,4.0817,4.0822,0,0,0,0,0,0,3.9976,3.9998,4.0205,4.0212,4.0057,4.0144,4.0158,4.021,4.0276,4.0281,4.0212,4.0205,4.033,4.0345,4.036,4.0545,4.0394,4.0403,4.0409,4.0812,4.0818,4.0824,0,0,0,0,0,0,3.997,3.9995,4.02,4.0104,4.0129,4.0154,4.0214,4.0215,4.0252,4.0287,4.0291,4.0245,4.0327,4.0347,4.0472,4.0548,4.0408,4.0416,4.0805,4.0814,4.0821,4.0916,0,0,0,0,0,0,3.9962,3.9993,4.0052,4.0106,4.0134,4.031,4.0219,4.0221,4.0268,4.026,4.0319,4.0325,4.0325,4.0458,4.0482,4.0559,4.0424,4.0799,4.0809,4.0818,4.0907,4.0927,4.0944,0,0,0,0,0,3.9952,4.0076,4.0056,4.0081,4.0209,4.0315,4.0331,4.0328,4.0274,4.0334,4.0356,4.0323,4.0536,4.0472,4.0498,4.0579,4.0794,4.0806,4.0818,4.0898,4.0923,4.0943,0,0,0,0,0,0,4.0032,4.0082,4.0061,4.0205,4.0256,4.0304,4.0379,4.0355,4.0422,4.0412,4.0406,4.042,4.055,4.0577,4.0505,4.0732,4.0657,4.0674,4.0709,4.0733,4.0751,4.0742,4.0432,0,0,0,0,0,4.0066,4.0147,4.0187,4.031,4.0337,4.0354,4.04,4.0393,4.0446,4.0468,4.0499,4.0553,4.0631,4.0684,4.0758,4.091,4.0922,4.0979,4.0997,4.1012,4.1028,4.1108,4.1134,4.0863,4.0863,4.0862,0,0,4.0138,4.0175,4.0227,4.0327,4.0366,4.045,4.0372,4.0466,4.0528,4.0482,4.0602,4.0627,4.0686,4.0825,4.0888,4.0851,4.1105,4.1027,4.1039,4.1046,4.1123,4.1149,4.1171,4.0871,4.0869,4.0868,0,0,4.0311,4.0348,4.0454,4.0494,4.0553,4.0563,4.0588,4.064,4.0655,4.0775,4.0741,4.0816,4.0952,4.0995,4.1035,4.1223,4.1194,4.1247,4.1345,4.1423,4.1445,4.1463,4.1529,4.1553,4.1263,4.1263,4.1263,0,4.0393,4.0519,4.0512,4.0607,4.0652,4.0612,4.0719,4.0759,4.084,4.0871,4.0829,4.0998,4.1035,4.1183,4.1228,4.1262,4.1291,4.1241,4.1442,4.1461,4.1478,4.1541,4.1566,4.1269,4.1268,4.1268,4.1267,0,4.0616,4.0703,4.0782,4.0859,4.0913,4.1014,4.1022,4.1077,4.1065,4.108,4.1202,4.1245,4.1327,4.1361,4.1352,4.1508,4.1483,4.1442,4.1366,4.151,4.1569,4.1593,4.1278,4.1275,4.1274,4.1272,0,0,4.0844,4.0915,4.0944,4.0977,4.1039,4.1106,4.1205,4.1284,4.1331,4.1388,4.147,4.1585,4.1547,4.1592,4.1587,4.1656,4.18,4.1606,4.1607,4.164,4.1973,4.2003,4.2031,4.1781,4.1786,4.179,4.1968,0,4.1021,4.1192,4.1188,4.1348,4.1428,4.1391,4.1477,4.1524,4.154,4.161,4.1628,4.1709,4.1653,4.168,4.1747,4.1769,4.1867,4.1756,4.1857,4.1861,4.1843,4.2062,4.2095,4.2261,4.1991,4.1995,4.1998,0,4.125,4.1313,4.148,4.1528,4.1561,4.1638,4.1709,4.1777,4.183,4.1836,4.1886,4.1869,4.1969,4.1891,4.2028,4.1952,4.1993,4.201,4.2017,4.2026,4.1938,4.2076,4.2314,4.2338,4.2034,4.2031,4.2028,0,4.1398,4.1525,4.164,4.1671,4.173,4.1785,4.1812,4.1859,4.1906,4.1969,4.1999,4.2073,4.2113,4.2171,4.2174,4.2117,4.2312,4.2234,4.232,4.232,4.2363,4.236,4.2609,4.2391,4.239,4.239,4.2389,0,4.1596,4.17,4.1707,4.1779,4.1893,4.1888,4.2001,4.2023,4.2066,4.214,4.2113,4.2184,4.2185,4.2257,4.226,4.2373,4.2392,4.2399,4.2399,4.2402,4.24,4.2428,4.2416,4.2397,4.2395,4.2394,4.2393,0,4.1781,4.1791,4.1914,4.1959,4.1973,4.2055,4.2094,4.2161,4.2174,4.2269,4.2291,4.2312,4.2395,4.2404,4.2502,4.2504,4.2639,4.2627,4.2621,4.2619,4.2703,4.2695,4.2979,4.3015,4.2774,4.2776,4.2778,0,4.1906,4.1984,4.2037,4.2085,4.2115,4.2192,4.2239,4.2237,4.2287,4.2351,4.2411,4.2492,4.2556,4.2691,4.2715,4.2789,4.2778,4.2872,4.2789,4.2788,4.2778,4.2773,4.278,4.2888,4.2891,4.2893,4.2895,0,4.2127,4.2127,4.2196,4.2266,4.2323,4.2379,4.2431,4.2472,4.2475,4.2533,4.2617,4.2667,4.2766,4.2846,4.2918,4.2946,4.2922,4.2921,4.2944,4.2947,4.294,4.2944,4.2664,4.2914,4.2912,4.2911,4.291,4.2909,4.2285,4.2352,4.2399,4.2477,4.2515,4.2564,4.2629,4.2649,4.2719,4.2798,4.2792,4.2885,4.2934,4.3029,4.3062,4.3135,4.3103,4.3138,4.3146,4.3154,4.3162,4.2929,4.3148,4.3147,4.3147,4.3146,4.3146,0,4.2503,4.2531,4.2602,4.2675,4.2736,4.2705,4.2761,4.2814,4.2895,4.2942,4.3005,4.3102,4.3179,4.3208,4.3283,4.3335,4.3326,4.3355,4.3351,4.3357,4.3187,4.3158,4.3361,4.3361,4.3361,4.3361,4.3361,4.3361,4.2624,4.2736,4.2742,4.2872,4.2899,4.2989,4.3023,4.3067,4.3105,4.3213,4.3276,4.3294,4.3334,4.3411,4.348,4.3487,4.3515,4.355,4.3551,4.3391,4.337,4.3349,4.3322,4.3556,4.3556,4.3715,4.3717,4.3718]},{"header":{"parameterUnit":"m.s-1","parameterCategory":1,"la1":30.2991,"la2":30.254,"lo1":-89.0895,"lo2":-89.0444,"dy":0.0017,"dx":0.0017,"nx":28,"ny":28,"refTime":"2024-07-27T21:00:00:Z","depth":0,"parameterNumber":3,"parameterNumberName":"V-component_of_WINDS"},"data":[0,0,0,0,0,0,0,0,0,0,0,0,0,0,0,0,0,0,0,0,0,0,0,0,0,0,0,0,0,0,0,0,0,0,0,0,0,0,0,0,0,0,0,0,0,0,0,0,0,0,0,0,0,0,0,0,0,0,1.1506,1.1506,0,1.154,1.154,1.154,1.1514,1.1513,1.1512,1.1511,1.1546,1.1548,1.155,0,0,0,0,0,0,0,0,0,0,0,0,0,1.1419,1.1421,1.1506,1.1507,1.1507,1.154,1.154,1.154,1.1514,1.1513,1.1512,1.151,1.1545,1.1547,1.155,0,0,0,0,0,0,0,0,0,0,0,0,0,1.1455,1.1421,1.1506,1.1498,1.1497,1.1539,1.154,1.1541,1.1515,1.1513,1.1511,1.151,1.1544,1.1547,1.155,1.1602,0,0,1.1559,1.156,0,0,0,0,0,0,0,0,1.1453,1.1458,1.1499,1.1498,1.1498,1.1521,1.1522,1.1561,1.1515,1.1508,1.1511,1.1509,1.1539,1.1542,1.1552,1.1604,1.1605,1.1559,1.1561,1.1563,1.1563,0,0,0,0,0,0,0,1.1451,1.1457,1.1519,1.1499,1.1499,1.1492,1.1496,1.1529,1.1533,1.1509,1.1507,1.1511,1.1538,1.1549,1.1553,1.1606,1.1559,1.1562,1.1564,1.1565,1.1701,1.1702,0,0,0,0,0,0,1.1449,1.1455,1.1518,1.152,1.1471,1.1495,1.1499,1.1515,1.1532,1.1533,1.1512,1.151,1.1545,1.1549,1.1554,1.1616,1.1562,1.1565,1.1567,1.1699,1.1701,1.1703,0,0,0,0,0,0,1.1447,1.1455,1.1517,1.1487,1.1495,1.1499,1.1517,1.1517,1.1528,1.1535,1.1535,1.1523,1.1544,1.155,1.159,1.1616,1.1567,1.1569,1.1697,1.1699,1.1702,1.1739,0,0,0,0,0,0,1.1445,1.1454,1.1475,1.1488,1.1496,1.1553,1.1519,1.1519,1.1533,1.153,1.1545,1.1546,1.1543,1.1586,1.1593,1.162,1.1572,1.1694,1.1698,1.1701,1.1736,1.1743,1.1749,0,0,0,0,0,1.1442,1.1484,1.1476,1.1484,1.1521,1.1554,1.1559,1.1555,1.1535,1.1555,1.156,1.1546,1.1612,1.159,1.1598,1.1626,1.1693,1.1697,1.1701,1.1733,1.1742,1.1749,0,0,0,0,0,0,1.1475,1.1486,1.1477,1.1524,1.1539,1.155,1.1575,1.1564,1.1585,1.1581,1.1574,1.1578,1.162,1.1627,1.1602,1.1676,1.1649,1.1655,1.1671,1.1679,1.1686,1.1684,1.1574,0,0,0,0,0,1.1487,1.1513,1.1521,1.1563,1.157,1.1572,1.1586,1.1581,1.1596,1.1602,1.1609,1.1624,1.1647,1.1664,1.1686,1.1736,1.1739,1.1759,1.1766,1.1771,1.1777,1.1803,1.1812,1.1716,1.1716,1.1716,0,0,1.1514,1.1523,1.154,1.157,1.158,1.1607,1.1577,1.1607,1.1626,1.1606,1.1645,1.165,1.1666,1.1711,1.1732,1.1718,1.1803,1.1777,1.1781,1.1783,1.1808,1.1817,1.1825,1.1719,1.1719,1.1718,0,0,1.1576,1.1586,1.1621,1.1632,1.1648,1.1648,1.1656,1.1669,1.1672,1.171,1.1695,1.1718,1.176,1.1772,1.1783,1.1848,1.1836,1.1855,1.1891,1.1916,1.1924,1.193,1.1953,1.1962,1.1861,1.1861,1.1861,0,1.1608,1.1647,1.1641,1.1671,1.1685,1.1666,1.1702,1.1712,1.1735,1.1744,1.1729,1.178,1.1789,1.1837,1.1852,1.1862,1.1871,1.1854,1.1923,1.193,1.1936,1.1958,1.1966,1.1863,1.1863,1.1863,1.1862,0,1.1685,1.1713,1.1739,1.1761,1.1777,1.181,1.1808,1.1824,1.1818,1.1819,1.1858,1.1868,1.1892,1.1903,1.1897,1.1949,1.194,1.1924,1.1897,1.1947,1.1968,1.1976,1.1866,1.1865,1.1865,1.1864,0,0,1.177,1.1787,1.1797,1.1806,1.1821,1.1842,1.1874,1.1897,1.1911,1.1927,1.1953,1.1988,1.1972,1.1985,1.198,1.2002,1.2053,1.1983,1.1984,1.1996,1.211,1.2122,1.2132,1.2044,1.2046,1.2047,1.2108,0,1.1833,1.1888,1.1882,1.1935,1.196,1.1942,1.1969,1.1981,1.1984,1.2005,1.2007,1.2032,1.201,1.2017,1.2039,1.2042,1.2075,1.2037,1.2068,1.2069,1.2065,1.2142,1.2156,1.2214,1.2116,1.2118,1.2119,0,1.1915,1.1932,1.1987,1.1997,1.2008,1.2032,1.2052,1.2073,1.2086,1.2086,1.2099,1.209,1.2121,1.2092,1.2135,1.2109,1.2121,1.2124,1.2126,1.2129,1.2097,1.2148,1.2232,1.2241,1.2131,1.213,1.2129,0,1.1971,1.2009,1.2046,1.2054,1.2068,1.2085,1.2091,1.2103,1.2116,1.2134,1.2142,1.2163,1.2175,1.2191,1.2187,1.2166,1.223,1.2201,1.223,1.223,1.2245,1.2244,1.2333,1.2253,1.2252,1.2252,1.2252,0,1.2042,1.2076,1.2071,1.2095,1.2132,1.2124,1.2161,1.2165,1.2175,1.2198,1.2184,1.2206,1.2199,1.2221,1.2218,1.2253,1.2258,1.2259,1.2258,1.226,1.226,1.2269,1.2265,1.2255,1.2254,1.2254,1.2253,0,1.2112,1.211,1.215,1.2158,1.2161,1.2188,1.2196,1.2217,1.2217,1.2247,1.2253,1.2254,1.2278,1.2275,1.2303,1.2301,1.2344,1.2338,1.234,1.2339,1.2368,1.2365,1.2465,1.2477,1.2389,1.239,1.2391,0,1.2158,1.2184,1.2195,1.2209,1.2216,1.224,1.2253,1.2246,1.2261,1.2277,1.2296,1.2319,1.2337,1.2377,1.238,1.24,1.2394,1.2428,1.2398,1.2399,1.2395,1.2393,1.2396,1.2434,1.2435,1.2436,1.2437,0,1.2239,1.2237,1.2257,1.2277,1.2293,1.2308,1.2322,1.2334,1.2329,1.2346,1.237,1.2384,1.2411,1.2434,1.2453,1.2459,1.2447,1.2446,1.2454,1.2457,1.2457,1.2457,1.2356,1.2444,1.2443,1.2443,1.2442,1.2442,1.2299,1.232,1.2331,1.2354,1.2363,1.2376,1.2396,1.2398,1.2418,1.244,1.2434,1.2462,1.2473,1.2497,1.2505,1.2526,1.2514,1.2525,1.2528,1.2531,1.2535,1.2453,1.253,1.2529,1.2529,1.2529,1.2529,0,1.2379,1.2385,1.2405,1.2425,1.2442,1.2428,1.2442,1.2458,1.2482,1.2493,1.2511,1.2538,1.256,1.2564,1.2584,1.26,1.2595,1.2606,1.2605,1.2606,1.2545,1.2536,1.261,1.261,1.261,1.261,1.261,1.2609,1.2423,1.2458,1.2457,1.2496,1.2502,1.2528,1.2537,1.2549,1.2558,1.2589,1.2607,1.2609,1.2617,1.2637,1.2656,1.2656,1.2665,1.2678,1.2676,1.2619,1.2611,1.2603,1.2594,1.2679,1.268,1.2736,1.2736,1.2736]}]]